Other Public Products
Issued by NWS Charleston, SC

Current Version | Previous Version | Graphics & Text | Print | Product List | Glossary On
Versions: 1 2 3 4 5 6 7 8 9 10 11 12 13 14 15 16 17 18 19 20 21 22 23 24 25 26 27 28 29 30 31 32 33 34 35 36 37 38 39 40 41 42 43 44 45 46 47 48 49 50
000 FPUS82 KCHS 270427 OPUCHS TEST...KCHS/KSAV Gateway Observations...TEST National Weather Service Charleston SC 1200 AM EDT MON MAR 27 2017 NOTE: "fair" indicates few or no clouds below 12,000 feet with no significant weather and/or obstructions to visibility. SCZ050-WAZ558-NCZ071-TXZ119-213-PAZ071-DCZ001-FLZ074-172-MI076- NYZ176-178-MAZ016-IL014-TNZ027-NJZ106-GAZ044-MD014-270500- ...Gateway Observations for Charleston International... CITY SKY/WX TMP DP RH WIND PRES REMARKS Chas Airport PTCLDY 62 55 77 S6 30.16F Seattle LGT RAIN 47 45 93 S10 29.79R Charlotte MOCLDY 62 57 83 SE8 30.12F Dallas DFW CLOUDY 75 62 64 S21 29.76R Dallas Love MOCLDY 76 61 59 S15G22 29.78R Philladelphia CLOUDY 41 40 96 E8 30.28F FOG Wash National DRIZZLE 47 46 97 E10 30.22F FOG Baltimore DRIZZLE 44 44 100 E9 30.23F FOG Miami PTCLDY 72 61 68 NE6 30.09F Detroit CLOUDY 49 48 97 S5 29.89F FOG Newark DRIZZLE 41 39 93 NE7 30.32F FOG Laguardia DRIZZLE 40 37 89 NE13 30.32F FOG WCI 32 J F K DRIZZLE 40 39 97 NE9 30.33F FOG WCI 34 Boston Logan CLOUDY 37 32 82 SE7 30.41F WCI 32 Ft. Lauderdale PTCLDY 72 59 63 E8 30.09F Chicago O`Hare CLOUDY 53 49 86 SW8 29.88R Chicago Midway CLOUDY 52 50 93 SW14 29.89S Houston Bush MOCLDY 73 67 81 S7 29.91R Houston Hobby MOCLDY 72 68 87 S8 29.88R Nashville CLOUDY 61 54 77 S6 30.00F Atlanta PTCLDY 65 55 70 SW3 30.07F $$ GAZ044-118-TXZ119-213-NCZ071-DCZ001-MDZ014-506-PAZ021-071-NJZ106- NYZ176-178-MAZ106-OHZ011-021-055-MIZ076-KYZ091-ILZ014-INZ047- MNZ060-ONZ431-270500- ...Gateway Observations for Savannah International... CITY SKY/WX TMP DP RH WIND PRES REMARKS Savannah Arpt PTCLDY 65 59 81 SE6 30.15S Atlanta PTCLDY 65 55 70 SW3 30.07F Charlotte MOCLDY 62 57 83 SE8 30.12F Dallas DFW CLOUDY 75 62 64 S21 29.76R Houston Bush MOCLDY 73 67 81 S7 29.91R Wash National DRIZZLE 47 46 97 E10 30.22F FOG Wash Dulles DRZL/FOG 46 45 96 E7 30.20F VSB 1 Baltimore DRIZZLE 44 44 100 E9 30.23F FOG Philadelphia CLOUDY 41 40 96 E8 30.28F FOG Newark DRIZZLE 41 39 93 NE7 30.32F FOG Laguardia DRIZZLE 40 37 89 NE13 30.32F FOG WCI 32 J F K DRIZZLE 40 39 97 NE9 30.33F FOG WCI 34 Boston CLOUDY 37 32 82 SE7 30.41F WCI 32 Pittsburg LGT RAIN 53 53 100 SE10 29.96F Akron LGT RAIN 55 52 89 S9 29.95F Cleveland LGT RAIN 58 52 80 S9 29.94F Cincinnati CLEAR 55 53 93 W6 29.98R Columbus CLOUDY 55 55 100 S6 29.96R Detroit CLOUDY 49 48 97 S5 29.89F FOG Chicago O`Hare CLOUDY 53 49 86 SW8 29.88R Minneapolis CLOUDY 40 35 83 N5 29.96R WCI 37 Indianapolis MOCLDY 53 48 83 SW12 29.96R Toronto Canada DRIZZLE 41 41 100 SE3 29.94F $$

USA.gov is the U.S. government's official web portal to all federal, state and local government web resources and services.